This is the latest recevied weather packets stored in our database for station/object K4AMF. If no packets are shown the sender has not sent any weather packets the latest 10 day(s).
| Time | Temp. | Humidity | Pressure | Rain* | Wind** | Luminosity | Snow |
|---|---|---|---|---|---|---|---|
| 1778173876 | 31.11° C | 51% | 1015.8 hPa | 0 mm | - | 456 W/m² | - |
| 1778173574 | 31.67° C | 50% | 1015.8 hPa | 0 mm | - | 440 W/m² | - |
| 1778173270 | 31.11° C | 53% | 1015.8 hPa | 0 mm | - | 914 W/m² | - |
| 1778172965 | 31.11° C | 51% | 1015.9 hPa | 0 mm | - | 520 W/m² | - |
| 1778172662 | 32.22° C | 50% | 1015.9 hPa | 0 mm | - | 441 W/m² | - |
| 1778172358 | 30.56° C | 53% | 1015.8 hPa | 0 mm | - | 745 W/m² | - |
| 1778172055 | 30.56° C | 54% | 1016 hPa | 0 mm | - | 704 W/m² | - |
| 1778171753 | 30.56° C | 56% | 1016.1 hPa | 0 mm | - | 624 W/m² | - |
| 1778171451 | 30.56° C | 56% | 1016.1 hPa | 0 mm | - | 737 W/m² | - |
| 1778171150 | 30.56° C | 57% | 1015.8 hPa | 0 mm | - | 716 W/m² | - |
| 1778170848 | 30.56° C | 60% | 1015.8 hPa | 0 mm | - | 757 W/m² | - |
| 1778170544 | 30.56° C | 61% | 1015.9 hPa | 0 mm | - | 754 W/m² | - |
| 1778170241 | 30° C | 64% | 1016.2 hPa | 0 mm | - | 344 W/m² | - |
| 1778169937 | 30° C | 63% | 1016.1 hPa | 0 mm | - | 751 W/m² | - |
| 1778169633 | 30° C | 65% | 1016.1 hPa | 0 mm | - | 734 W/m² | - |
| 1778169329 | 30° C | 64% | 1016.3 hPa | 0 mm | - | 764 W/m² | - |
| 1778169026 | 30.56° C | 64% | 1016.4 hPa | 0 mm | - | 780 W/m² | - |
| 1778168723 | 30° C | 66% | 1016.3 hPa | 0 mm | - | 600 W/m² | - |
| 1778168420 | 29.44° C | 67% | 1016.4 hPa | 0 mm | - | 630 W/m² | - |
| 1778168117 | 30° C | 67% | 1016.2 hPa | 0 mm | - | 608 W/m² | - |
| 1778167813 | 29.44° C | 67% | 1016.3 hPa | 0 mm | - | 757 W/m² | - |
| 1778167509 | 29.44° C | 65% | 1016.4 hPa | 0 mm | - | 436 W/m² | - |
| 1778167205 | 29.44° C | 65% | 1016.2 hPa | 0 mm | - | 548 W/m² | - |
| 1778166902 | 30° C | 65% | 1016 hPa | 0 mm | - | 485 W/m² | - |
| 1778166599 | 29.44° C | 67% | 1016 hPa | 0 mm | - | 614 W/m² | - |
* Rain latest hour (hover to see other rain measurements)
** Current wind speed in m/s (hover to see current wind gust speed)